| time (UTC) | temp C | wind direction | speed KPH | gust KPH | rain 1hr cm | rain 24hr cm | rain mn cm | humidity % | barometer mb |
| 20260506103011 | 11 | 83 | 3.2 | 16.1 | 0.00 | 0.00 | 0.00 | 31 | 1011.1 |
| 20260506101509 | 11 | 137 | 4.8 | 12.9 | 0.00 | 0.00 | 0.00 | 29 | 1011.3 |
| 20260506100009 | 12 | 122 | 1.6 | 14.5 | 0.00 | 0.00 | 0.00 | 30 | 1011.4 |
| 20260506094505 | 11 | 335 | 3.2 | 20.9 | 0.00 | 0.00 | 0.00 | 28 | 1011.3 |
| 20260506093002 | 11 | 104 | 3.2 | 11.3 | 0.00 | 0.00 | 0.00 | 27 | 1011.3 |
| 20260506091500 | 12 | 191 | 1.6 | 8.0 | 0.00 | 0.00 | 0.00 | 24 | 1011.4 |
| 20260506090104 | 11 | 195 | 1.6 | 11.3 | 0.00 | 0.00 | 0.00 | 26 | 1011.5 |
| 20260506084606 | 11 | 145 | 0.0 | 9.7 | 0.00 | 0.00 | 0.00 | 29 | 1011.6 |
| 20260506083057 | 11 | 318 | 9.7 | 14.5 | 0.00 | 0.00 | 0.00 | 26 | 1011.6 |
| 20260506081554 | 11 | 316 | 0.0 | 8.0 | 0.00 | 0.00 | 0.00 | 29 | 1011.6 |
| 20260506080104 | 11 | 330 | 4.8 | 11.3 | 0.00 | 0.00 | 0.00 | 27 | 1011.6 |
| 20260506073048 | 11 | 309 | 0.0 | 12.9 | 0.00 | 0.00 | 0.00 | 33 | 1011.6 |
| 20260506071545 | 10 | 293 | 0.0 | 8.0 | 0.00 | 0.00 | 0.00 | 38 | 1011.5 |
| 20260506061533 | 7 | 325 | 3.2 | 9.7 | 0.00 | 0.00 | 0.00 | 50 | 1011.7 |
| 20260506044511 | 2 | 309 | 0.0 | 0.0 | 0.00 | 0.00 | 0.00 | 81 | 1011.5 |
| 20260506043011 | 1 | 309 | 0.0 | 0.0 | 0.00 | 0.00 | 0.00 | 81 | 1011.4 |
| 20260506041507 | 1 | 309 | 0.0 | 0.0 | 0.00 | 0.00 | 0.00 | 82 | 1011.3 |
| 20260506040003 | 0 | 309 | 0.0 | 0.0 | 0.00 | 0.00 | 0.00 | 88 | 1011.3 |
| 20260506034615 | -1 | 309 | 0.0 | 0.0 | 0.00 | 0.00 | 0.00 | 91 | 1011.2 |
| 20260506033058 | -3 | 309 | 0.0 | 0.0 | 0.00 | 0.00 | 0.00 | 92 | 1011.1 |
| 20260506031607 | -3 | 309 | 0.0 | 0.0 | 0.00 | 0.00 | 0.00 | 92 | 1011.1 |
| 20260506030055 | -3 | 49 | 0.0 | 0.0 | 0.00 | 0.00 | 0.00 | 91 | 1011.0 |
| 20260506024613 | -3 | 49 | 0.0 | 0.0 | 0.00 | 0.00 | 0.00 | 91 | 1011.0 |
| 20260506023052 | -3 | 49 | 0.0 | 0.0 | 0.00 | 0.00 | 0.00 | 91 | 1010.9 |
| 20260506021553 | -3 | 49 | 0.0 | 0.0 | 0.00 | 0.00 | 0.00 | 90 | 1010.9 |
| 20260506020048 | -3 | 49 | 0.0 | 0.0 | 0.00 | 0.00 | 0.00 | 90 | 1010.8 |
| 20260506014550 | -3 | 49 | 0.0 | 0.0 | 0.00 | 0.00 | 0.00 | 90 | 1010.8 |
| 20260506013100 | -3 | 49 | 0.0 | 0.0 | 0.00 | 0.00 | 0.00 | 89 | 1010.7 |
| 20260506011544 | -3 | 49 | 0.0 | 1.6 | 0.00 | 0.00 | 0.00 | 89 | 1010.7 |
| 20260506010042 | -3 | 49 | 0.0 | 0.0 | 0.00 | 0.00 | 0.00 | 88 | 1010.6 |
| 20260506004539 | -2 | 49 | 0.0 | 0.0 | 0.00 | 0.00 | 0.00 | 88 | 1010.5 |
| 20260506003039 | -2 | 49 | 0.0 | 0.0 | 0.00 | 0.00 | 0.00 | 86 | 1010.4 |
| 20260506001538 | -2 | 49 | 0.0 | 0.0 | 0.00 | 0.00 | 0.00 | 86 | 1010.3 |
| 20260506000033 | -2 | 49 | 0.0 | 0.0 | 0.00 | 0.00 | 0.00 | 85 | 1010.2 |
| 20260505234536 | -2 | 49 | 0.0 | 0.0 | 0.00 | 0.00 | 0.00 | 85 | 1010.2 |
| 20260505233029 | -2 | 49 | 0.0 | 0.0 | 0.00 | 0.00 | 0.00 | 84 | 1010.3 |
| 20260505231530 | -2 | 49 | 0.0 | 0.0 | 0.00 | 0.00 | 0.00 | 84 | 1010.3 |
| 20260505230045 | -2 | 49 | 0.0 | 0.0 | 0.00 | 0.00 | 0.00 | 82 | 1010.2 |
| 20260505224524 | -1 | 49 | 0.0 | 0.0 | 0.00 | 0.00 | 0.00 | 82 | 1010.1 |
| 20260505223027 | -1 | 49 | 0.0 | 0.0 | 0.00 | 0.00 | 0.00 | 82 | 1010.1 |
| 20260505221520 | -1 | 49 | 0.0 | 0.0 | 0.00 | 0.00 | 0.00 | 79 | 1010.1 |
| 20260505220016 | -1 | 49 | 0.0 | 0.0 | 0.00 | 0.00 | 0.00 | 78 | 1009.9 |
| 20260505214515 | 0 | 49 | 0.0 | 1.6 | 0.00 | 0.00 | 0.00 | 76 | 1009.8 |
| 20260505213012 | 0 | 49 | 0.0 | 0.0 | 0.00 | 0.00 | 0.00 | 74 | 1009.8 |
| 20260505211509 | 0 | 49 | 0.0 | 0.0 | 0.00 | 0.00 | 0.00 | 72 | 1009.6 |
| 20260505210006 | 0 | 49 | 0.0 | 1.6 | 0.00 | 0.00 | 0.00 | 69 | 1009.5 |
| 20260505204503 | 1 | 49 | 0.0 | 1.6 | 0.00 | 0.00 | 0.00 | 69 | 1009.4 |
| 20260505203002 | 1 | 49 | 0.0 | 0.0 | 0.00 | 0.00 | 0.00 | 67 | 1009.1 |
| 20260505201600 | 1 | 49 | 0.0 | 1.6 | 0.00 | 0.00 | 0.00 | 66 | 1009.0 |
| 20260505200059 | 1 | 48 | 0.0 | 0.0 | 0.00 | 0.00 | 0.00 | 64 | 1009.0 |
| 20260505194604 | 2 | 48 | 0.0 | 3.2 | 0.00 | 0.00 | 0.00 | 60 | 1008.9 |
| 20260505193047 | 3 | 84 | 0.0 | 1.6 | 0.00 | 0.00 | 0.00 | 59 | 1008.8 |
| 20260505191544 | 4 | 101 | 0.0 | 1.6 | 0.00 | 0.00 | 0.00 | 52 | 1008.7 |
| 20260505190045 | 5 | 133 | 0.0 | 1.6 | 0.00 | 0.00 | 0.00 | 49 | 1008.6 |
| 20260505184540 | 6 | 133 | 0.0 | 1.6 | 0.00 | 0.00 | 0.00 | 42 | 1008.5 |
| 20260505183038 | 7 | 133 | 0.0 | 1.6 | 0.00 | 0.00 | 0.00 | 37 | 1008.3 |
| 20260505181537 | 8 | 133 | 0.0 | 3.2 | 0.00 | 0.00 | 0.00 | 35 | 1008.1 |
| 20260505180136 | 8 | 78 | 1.6 | 6.4 | 0.00 | 0.00 | 0.00 | 34 | 1008.0 |
| 20260505174534 | 8 | 124 | 4.8 | 9.7 | 0.00 | 0.00 | 0.00 | 32 | 1007.9 |
| 20260505173042 | 8 | 118 | 3.2 | 14.5 | 0.00 | 0.00 | 0.00 | 32 | 1007.9 |
| 20260505171534 | 8 | 142 | 3.2 | 14.5 | 0.00 | 0.00 | 0.00 | 31 | 1007.8 |
| 20260505170037 | 9 | 166 | 1.6 | 12.9 | 0.00 | 0.00 | 0.00 | 32 | 1007.7 |
| 20260505164547 | 9 | 14 | 4.8 | 16.1 | 0.00 | 0.00 | 0.00 | 31 | 1007.7 |
| 20260505163031 | 10 | 82 | 3.2 | 19.3 | 0.00 | 0.00 | 0.00 | 30 | 1007.7 |
| 20260505161529 | 10 | 25 | 8.0 | 20.9 | 0.00 | 0.00 | 0.00 | 30 | 1007.7 |
| 20260505153035 | 10 | 153 | 9.7 | 16.1 | 0.00 | 0.00 | 0.00 | 30 | 1007.6 |
| 20260505151525 | 10 | 148 | 4.8 | 22.5 | 0.00 | 0.00 | 0.00 | 31 | 1007.6 |
| 20260505124514 | 9 | 129 | 4.8 | 20.9 | 0.00 | 0.00 | 0.00 | 34 | 1007.5 |
| 20260505123012 | 8 | 75 | 9.7 | 17.7 | 0.00 | 0.00 | 0.00 | 34 | 1007.5 |
| 20260505121511 | 9 | 338 | 8.0 | 22.5 | 0.00 | 0.00 | 0.00 | 35 | 1007.6 |
| 20260505120010 | 8 | 9 | 3.2 | 17.7 | 0.00 | 0.00 | 0.00 | 39 | 1007.4 |
| 20260505114510 | 9 | 44 | 3.2 | 17.7 | 0.00 | 0.00 | 0.00 | 37 | 1007.2 |
| 20260505113007 | 8 | 131 | 3.2 | 16.1 | 0.00 | 0.00 | 0.00 | 37 | 1007.2 |
| 20260505111507 | 9 | 34 | 3.2 | 17.7 | 0.00 | 0.00 | 0.00 | 38 | 1007.1 |